TimeEST,TemperatureF,Dew PointF,Humidity,Sea Level PressureIn,VisibilityMPH,Wind Direction,Wind SpeedMPH,Gust SpeedMPH,PrecipitationIn,Events,Conditions,WindDirDegrees,DateUTC
12:15 AM,59.0,59.0,100,30.26,4.0,Calm,Calm,-,N/A,,Overcast,0,2013-01-09 05:15:00
12:35 AM,59.0,59.0,100,30.26,3.0,Calm,Calm,-,N/A,,Overcast,0,2013-01-09 05:35:00
1:15 AM,59.0,59.0,100,30.26,2.0,Calm,Calm,-,N/A,,Overcast,0,2013-01-09 06:15:00
1:35 AM,60.8,60.8,100,30.27,1.5,Calm,Calm,-,N/A,,Overcast,0,2013-01-09 06:35:00
1:55 AM,60.8,60.8,100,30.27,1.0,Calm,Calm,-,N/A,,Overcast,0,2013-01-09 06:55:00
2:15 AM,60.8,60.8,100,30.26,1.2,Calm,Calm,-,N/A,,Overcast,0,2013-01-09 07:15:00
2:35 AM,60.8,60.8,100,30.26,0.5,Calm,Calm,-,N/A,Fog,Fog,0,2013-01-09 07:35:00
2:55 AM,60.8,60.8,100,30.26,0.2,Calm,Calm,-,N/A,Fog,Fog,0,2013-01-09 07:55:00
3:15 AM,60.8,60.8,100,30.26,0.2,Calm,Calm,-,N/A,Fog,Fog,0,2013-01-09 08:15:00
3:35 AM,60.8,60.8,100,30.25,0.2,Calm,Calm,-,N/A,Fog,Fog,0,2013-01-09 08:35:00
3:55 AM,60.8,60.8,100,30.25,0.2,Calm,Calm,-,N/A,Fog,Fog,0,2013-01-09 08:55:00
4:15 AM,60.8,60.8,100,30.25,0.2,Calm,Calm,-,N/A,Fog,Fog,0,2013-01-09 09:15:00
4:35 AM,60.8,60.8,100,30.25,0.2,Calm,Calm,-,N/A,Fog,Fog,0,2013-01-09 09:35:00
4:55 AM,60.8,60.8,100,30.25,0.8,Calm,Calm,-,N/A,,Overcast,0,2013-01-09 09:55:00
5:15 AM,60.8,60.8,100,30.25,0.2,Calm,Calm,-,N/A,Fog,Fog,0,2013-01-09 10:15:00
5:35 AM,60.8,60.8,100,30.26,0.2,Calm,Calm,-,N/A,Fog,Fog,0,2013-01-09 10:35:00
5:55 AM,60.8,60.8,100,30.26,0.2,Calm,Calm,-,N/A,Fog,Fog,0,2013-01-09 10:55:00
6:15 AM,62.6,62.6,100,30.26,0.2,Calm,Calm,-,N/A,Fog,Fog,0,2013-01-09 11:15:00
6:35 AM,62.6,62.6,100,30.27,0.2,Calm,Calm,-,N/A,Fog,Fog,0,2013-01-09 11:35:00
6:50 AM,62.6,62.6,100,30.27,0.2,Calm,Calm,-,N/A,Fog,Fog,0,2013-01-09 11:50:00
7:50 AM,62.6,62.6,100,30.30,0.2,Calm,Calm,-,N/A,Fog,Fog,0,2013-01-09 12:50:00
8:50 AM,62.6,62.6,100,30.33,0.2,Calm,Calm,-,N/A,Fog,Fog,0,2013-01-09 13:50:00
9:50 AM,64.4,64.4,100,30.34,0.8,Calm,Calm,-,N/A,,Overcast,0,2013-01-09 14:50:00
10:50 AM,66.2,66.2,100,30.34,3.0,NNE,4.6,-,N/A,,Overcast,20,2013-01-09 15:50:00
11:50 AM,71.6,68.0,88,30.33,4.0,NE,4.6,-,N/A,,Overcast,50,2013-01-09 16:50:00
12:04 PM,73.4,68.0,83,30.31,4.0,ENE,3.5,-,N/A,,Overcast,60,2013-01-09 17:04:00
12:50 PM,73.4,69.8,88,30.30,5.0,East,4.6,-,N/A,,Overcast,80,2013-01-09 17:50:00
1:50 PM,75.2,69.8,83,30.28,10.0,NE,4.6,-,N/A,,Overcast,50,2013-01-09 18:50:00
2:50 PM,75.2,69.8,83,30.28,10.0,ENE,5.8,-,N/A,,Overcast,60,2013-01-09 19:50:00
3:50 PM,75.2,69.8,83,30.29,10.0,NE,4.6,-,N/A,,Mostly Cloudy,50,2013-01-09 20:50:00
4:50 PM,73.4,68.0,83,30.29,10.0,NE,5.8,-,N/A,,Scattered Clouds,50,2013-01-09 21:50:00
5:50 PM,71.6,68.0,88,30.31,10.0,NE,5.8,-,N/A,,Overcast,50,2013-01-09 22:50:00
6:50 PM,66.2,66.2,100,30.33,10.0,NE,4.6,-,N/A,,Mostly Cloudy,50,2013-01-09 23:50:00
7:50 PM,66.2,66.2,100,30.33,10.0,NNE,4.6,-,N/A,,Overcast,30,2013-01-10 00:50:00
8:15 PM,66.2,66.2,100,30.34,10.0,NE,6.9,-,N/A,,Overcast,40,2013-01-10 01:15:00
8:35 PM,66.2,66.2,100,30.35,10.0,NE,5.8,-,N/A,,Overcast,40,2013-01-10 01:35:00
9:15 PM,66.2,66.2,100,30.35,10.0,NE,4.6,-,N/A,,Overcast,40,2013-01-10 02:15:00
9:35 PM,66.2,66.2,100,30.35,10.0,Calm,Calm,-,N/A,,Overcast,0,2013-01-10 02:35:00
9:55 PM,66.2,66.2,100,30.35,10.0,ENE,3.5,-,N/A,,Mostly Cloudy,60,2013-01-10 02:55:00
10:15 PM,66.2,66.2,100,30.35,10.0,ENE,4.6,-,N/A,,Mostly Cloudy,60,2013-01-10 03:15:00
10:35 PM,66.2,66.2,100,30.35,10.0,ENE,4.6,-,N/A,,Mostly Cloudy,60,2013-01-10 03:35:00
10:55 PM,66.2,66.2,100,30.36,10.0,Calm,Calm,-,N/A,,Overcast,0,2013-01-10 03:55:00
11:15 PM,66.2,66.2,100,30.36,10.0,Calm,Calm,-,N/A,,Overcast,0,2013-01-10 04:15:00
11:35 PM,66.2,66.2,100,30.36,9.0,Calm,Calm,-,N/A,,Overcast,0,2013-01-10 04:35:00
11:55 PM,66.2,66.2,100,30.37,10.0,Calm,Calm,-,N/A,,Overcast,0,2013-01-10 04:55:00